Tracking 31030 objects as of 16-Jul-2025
HD Live streaming from Space Station
objects crossing your sky now

STARLINK-31647

Track STARLINK-31647 now!
10-day predictions
STARLINK-31647 is classified as:


NORAD ID: 59389
Int'l Code: 2024-062R
Perigee: 470.4 km
Apogee: 472.7 km
Inclination: 53.2 °
Period: 93.9 minutes
Semi major axis: 6842 km
RCS: Unknown
Launch date: April 2, 2024
Source: United States (US)
Launch site: AIR FORCE WESTERN TEST RANGE (AFWTR)
Your satellite tracking list
Your tracking list is empty




NASA's NSSDC Master Catalog

Two Line Element Set (TLE):
1 59389U 24062R   25196.94193005 -.00140045  00000-0 -42876-2 0  9997
2 59389  53.1614 276.1153 0001708  86.7593 273.3605 15.33832578 73433
Source of the keplerian elements: AFSPC